Location: Unspecified
(0.0000°N, 0.0000°E)
Time: 19:29:00
(UTC+00:00)

YUBILEINY - Pass Details

Date: 17 December 2017
Orbit: 1479 x 1508 km, 82.5° (Epoch: 18 June)

Event Time Altitude Azimuth Distance (km) Brightness Sun altitude
Rises 03:17:31 0° 201° (SSW) 4,620 ? -35.8°
Reaches altitude 10° 03:20:38 10° 208° (SSW) 3,642 ? -35.2°
Enters shadow 03:23:26 21° 220° (SW) 2,863 ? -34.6°
